Weather History for Page, AZ

Change the Weather History Date:

Sunday, May 19, 2013

  Actual Average Record
Temperature  
Mean Temperature 65 °F -  
Max Temperature 75 °F 81 °F 98 °F (2008)
Min Temperature 55 °F 55 °F 40 °F (1977)
Growing Degree Days 15 (Base 50)    
Moisture  
Dew Point 32 °F    
Average Humidity 29    
Maximum Humidity 53    
Minimum Humidity 13    
Precipitation  
Precipitation 0.00 in - - ()
Sea Level Pressure  
Sea Level Pressure 29.85 in    
Wind  
Wind Speed 7 mph (NW)    
Max Wind Speed 16 mph    
Max Gust Speed 33 mph    
Visibility 10 miles    
Events Rain , Thunderstorm    
Averages and records for this station are not official NWS values.
T = Trace of Precipitation, MM = Missing Value Source: NWS Daily Summary

Daily Weather History Graph

Daily Weather History Graph

Search for Another Location

Airport:

Trip Planner

Search our weather history database for the weather conditions in past years. The results will help you decide how hot, cold, wet, or windy it might be!

Date:

Astronomy

May. 19, 2013 Rise Set
Actual Time 5:14 AM MST 7:30 PM MST
Civil Twilight 4:45 AM MST 7:59 PM MST
Nautical Twilight 4:09 AM MST 8:35 PM MST
Astronomical Twilight 3:30 AM MST 9:15 PM MST
Moon 1:46 PM MST (5/19) 1:31 AM MST (5/19)
Length of Visible Light 15h 14m
Length of Day
14h 15m
Waxing Gibbous, 66% of the Moon is Illuminated
May 19
Waxing Gibbous
May 24
Full
May 31
Last Quarter
Jun 8
New
Jun 16
First Quarter

Hourly Weather History & Observations

Time (MST) Temp. Dew Point Humidity Pressure Visibility Wind Dir Wind Speed Gust Speed Precip Events Conditions
12:53 AM 64.0 °F 32.0 °F 30% 29.81 in 10.0 mi West 5.8 mph - 0.00 in   Mostly Cloudy
1:26 AM 64.4 °F 30.2 °F 28% 29.97 in 10.0 mi WNW 6.9 mph - N/A Thunderstorm Mostly Cloudy
1:51 AM 62.6 °F 35.6 °F 37% 29.99 in 9.0 mi South 15.0 mph 33.4 mph 0.00 in Rain Light Rain
1:53 AM 63.0 °F 36.0 °F 37% 29.83 in 9.0 mi South 12.7 mph 33.4 mph 0.00 in Rain Light Rain
2:53 AM 62.1 °F 34.0 °F 35% 29.83 in 10.0 mi Calm Calm - 0.00 in   Scattered Clouds
3:53 AM 60.1 °F 35.1 °F 39% 29.84 in 10.0 mi South 3.5 mph - N/A   Scattered Clouds
4:53 AM 57.2 °F 37.4 °F 48% 30.00 in 10.0 mi SE 6.9 mph - N/A   Mostly Cloudy
5:53 AM 55.9 °F 39.0 °F 53% 29.86 in 10.0 mi SSE 5.8 mph - N/A   Partly Cloudy
6:53 AM 61.0 °F 37.9 °F 42% 29.86 in 10.0 mi North 5.8 mph - N/A   Partly Cloudy
7:53 AM 63.0 °F 35.1 °F 35% 29.87 in 10.0 mi NNW 6.9 mph - N/A   Partly Cloudy
8:53 AM 64.0 °F 34.0 °F 33% 29.87 in 10.0 mi Calm Calm - N/A   Mostly Cloudy
9:53 AM 66.9 °F 34.0 °F 30% 29.85 in 10.0 mi Calm Calm - N/A   Scattered Clouds
10:53 AM 71.1 °F 32.0 °F 24% 29.82 in 10.0 mi NE 5.8 mph - N/A   Partly Cloudy
11:53 AM 71.6 °F 28.4 °F 20% 29.94 in 10.0 mi Calm Calm - N/A   Partly Cloudy
12:53 PM 71.6 °F 26.6 °F 19% 29.92 in 10.0 mi Variable 5.8 mph - N/A   Scattered Clouds
1:53 PM 72.0 °F 25.0 °F 17% 29.76 in 10.0 mi Variable 4.6 mph - 0.00 in   Mostly Cloudy
2:53 PM 73.9 °F 27.0 °F 18% 29.73 in 10.0 mi North 9.2 mph - N/A   Mostly Cloudy
3:53 PM 72.0 °F 28.9 °F 20% 29.75 in 10.0 mi NNW 13.8 mph 28.8 mph N/A   Mostly Cloudy
4:00 PM 71.6 °F 28.4 °F 20% 29.90 in 10.0 mi NNW 16.1 mph 26.5 mph N/A   Overcast
4:53 PM 69.1 °F 28.9 °F 22% 29.78 in 10.0 mi NNW 12.7 mph - N/A   Scattered Clouds
5:53 PM 71.1 °F 30.0 °F 22% 29.78 in 10.0 mi NNW 9.2 mph 17.3 mph N/A   Mostly Cloudy
6:53 PM 68.0 °F 28.9 °F 23% 29.80 in 10.0 mi NW 9.2 mph - N/A   Mostly Cloudy
7:53 PM 66.0 °F 28.0 °F 24% 29.81 in 10.0 mi NW 8.1 mph - N/A   Partly Cloudy
8:53 PM 64.4 °F 30.2 °F 28% 29.98 in 10.0 mi WNW 10.4 mph 17.3 mph N/A   Scattered Clouds
9:53 PM 62.1 °F 32.0 °F 32% 29.86 in 10.0 mi WNW 12.7 mph - N/A   Scattered Clouds
10:53 PM 60.1 °F 34.0 °F 38% 29.86 in 10.0 mi West 11.5 mph 21.9 mph N/A   Clear
11:53 PM 57.9 °F 33.1 °F 39% 29.87 in 10.0 mi West 10.4 mph 18.4 mph N/A   Clear